This is the latest recevied weather packets stored in our database for station/object DH8TOM-3. If no packets are shown the sender has not sent any weather packets the latest 10 day(s).
| Time | Temp. | Humidity | Pressure | Rain* | Wind** | Luminosity | Snow |
|---|---|---|---|---|---|---|---|
| 1777734510 | 23.33° C | 36% | 1016.7 hPa | 0 mm | - | - | - |
| 1777733909 | 23.33° C | 36% | 1016.8 hPa | 0 mm | - | - | - |
| 1777733609 | 23.33° C | 36% | 1016.8 hPa | 0 mm | - | - | - |
| 1777733307 | 23.33° C | 40% | 1017 hPa | 0 mm | - | - | - |
| 1777732705 | 23.33° C | 40% | 1017.2 hPa | 0 mm | - | - | - |
| 1777732405 | 23.33° C | 40% | 1017.2 hPa | 0 mm | - | - | - |
| 1777732103 | 23.33° C | 39% | 1017.3 hPa | 0 mm | - | - | - |
| 1777731802 | 23.33° C | 39% | 1017.3 hPa | 0 mm | - | - | - |
| 1777731513 | 23.33° C | 40% | 1017.5 hPa | 0 mm | - | - | - |
| 1777731200 | 23.33° C | 40% | 1017.5 hPa | 0 mm | - | - | - |
| 1777730900 | 23.33° C | 38% | 1017.8 hPa | 0 mm | - | - | - |
| 1777730598 | 23.33° C | 38% | 1017.8 hPa | 0 mm | - | - | - |
| 1777730297 | 23.33° C | 39% | 1017.9 hPa | 0 mm | - | - | - |
| 1777729394 | 23.33° C | 38% | 1018.1 hPa | 0 mm | - | - | - |
| 1777729092 | 23.33° C | 41% | 1018.2 hPa | 0 mm | - | - | - |
| 1777728792 | 23.33° C | 41% | 1018.2 hPa | 0 mm | - | - | - |
| 1777728492 | 23.33° C | 40% | 1018.3 hPa | 0 mm | - | - | - |
| 1777728190 | 23.33° C | 40% | 1018.3 hPa | 0 mm | - | - | - |
| 1777727900 | 22.78° C | 42% | 1018.5 hPa | 0 mm | - | - | - |
| 1777727287 | 22.78° C | 40% | 1018.7 hPa | 0 mm | - | - | - |
| 1777726685 | 22.78° C | 41% | 1018.8 hPa | 0 mm | - | - | - |
| 1777725481 | 22.78° C | 39% | 1019.1 hPa | 0 mm | - | - | - |
| 1777724879 | 22.22° C | 41% | 1019.3 hPa | 0 mm | - | - | - |
| 1777724277 | 22.22° C | 40% | 1019.5 hPa | 0 mm | - | - | - |
| 1777723976 | 22.22° C | 40% | 1019.5 hPa | 0 mm | - | - | - |
* Rain latest hour (hover to see other rain measurements)
** Current wind speed in m/s (hover to see current wind gust speed)